Regional Weather Roundup
Issued by NWS Grand Forks, ND

Home | Current Version | Previous Version | Text Only | Print | Product List | Glossary On
Versions: 1 2 3 4 5 6 7 8 9 10 11 12 13 14 15 16 17 18 19 20 21 22 23 24 25 26 27 28 29 30 31 32 33 34 35 36 37 38 39 40 41 42 43 44 45 46 47 48 49 50
000
ASUS43 KFGF 051831
RWRFGF
PRAIRIE TO PINES  WEATHER ROUNDUP
NATIONAL WEATHER SERVICE EASTERN NORTH DAKOTA/GRAND FORKS ND
100 PM CDT TUE MAY 05 2015

 **SATELLITE DATA USED TO AUGMENT SKY COVER AT AUTOMATED STATIONS**
 *****  WEATHER ACROSS EASTERN NORTH DAKOTA  *****

CITY           SKY/WX    TMP DP  RH WIND       PRES   REMARKS
GRAND FORKS    MOSUNNY   72  22  15 S17G25    30.09F
6HR MIN TEMP:  40; 6HR MAX TEMP:  73;

GRAND FRKS AFB SUNNY     73  25  16 S15G23    30.08F
GRAND FRKS NWS   N/A     70 N/A N/A S15         N/A
DEVILS LAKE    MOSUNNY   72  30  21 S21G29    30.05F
6HR MIN TEMP:  54; 6HR MAX TEMP:  72;

FARGO          SUNNY     74  21  13 SE20G28   30.09F
WAHPETON ARPT  CLEAR     73  18  12 SE17G24   30.09F
$$

 ***** WEATHER ACROSS CENTRAL AND WESTERN NORTH DAKOTA  *****

CITY           SKY/WX    TMP DP  RH WIND       PRES   REMARKS
BISMARCK       PTSUNNY   71  30  21 S26G32    30.00F
6HR MIN TEMP:  51; 6HR MAX TEMP:  71;

MINOT          SUNNY     73  34  23 SE26G36   29.95F
6HR MIN TEMP:  53; 6HR MAX TEMP:  73;

JAMESTOWN      MOSUNNY   74  28  18 S14G26    30.05F
6HR MIN TEMP:  48; 6HR MAX TEMP:  74;

MINOT AFB      SUNNY     74  36  24 S28G35    29.93F
GARRISON         N/A     72  35  25 S23G30    29.96F
WILLISTON      SUNNY     75  37  25 SE17G25   29.86F
6HR MIN TEMP:  49; 6HR MAX TEMP:  75;

DICKINSON      SUNNY     71  45  39 S29G39    29.90F
6HR MIN TEMP:  40; 6HR MAX TEMP:  71;

HETTINGER      MOSUNNY   69  47  45 S25G36    29.94F
6HR MIN TEMP:  44; 6HR MAX TEMP:  69;

$$

 *****  OTHER AIRPORT OBSERVATIONS IN OUR AREA  *****

CITY           SKY/WX    TMP DP  RH WIND       PRES   REMARKS
WALHALLA       FAIR      72  32  23 S16G24    30.06F
GRAFTON AIRPOR FAIR      73  27  17 S14G28    30.09F
VALLEY CITY AR FAIR      70  28  21 SE18G24   30.07F
CANDO          FAIR      72  28  20 S24G33    30.04F
CAVALIER APRT  FAIR      72  27  18 S20G26    30.07F
GWINNER        CLEAR     73  32  21 SE17G24   30.08F
SHEYENNE NWR     N/A     75  26  16 SE15      29.95S
ROLLA          NOT AVBL
 ***** THE ABOVE OBSERVATIONS ARE NON NWS ARE NOT QUALITY
       CONTROLLED AND MAY MIS-REPORT RAIN FOR SNOW...
$$

  *****  WEATHER ACROSS NORTHERN MINNESOTA  *****

CITY           SKY/WX    TMP DP  RH WIND       PRES   REMARKS
FLAG ISLAND    SUNNY     63  32  31 SE5       30.14F
WARROAD        SUNNY     72  32  23 SE15G24   30.14F
ROSEAU         SUNNY     73  16  11 S16G23    30.12F
HALLOCK        SUNNY     75   7   7 S15G29    30.08F
THF RVR FALLS  SUNNY     72  21  15 S14G23    30.12F
6HR MIN TEMP:  45; 6HR MAX TEMP:  72;

BAUDETTE       SUNNY     71  25  17 S15G22    30.16F
6HR MIN TEMP:  38; 6HR MAX TEMP:  71;

WASKISH        SUNNY     72  28  20 CALM      30.15F
CROOKSTON      MOSUNNY   73  21  14 S18       30.11F
$$
  *****  WEATHER ACROSS CENTRAL AND WEST MINNESOTA  *****

CITY           SKY/WX    TMP DP  RH WIND       PRES   REMARKS
FOSSTON        SUNNY     72  18  13 SE9       30.13F
BEMIDJI        SUNNY     70  24  17 SE12      30.15F
PARK RAPIDS    SUNNY     71  21  15 SE13G23   30.15F
6HR MIN TEMP:  37; 6HR MAX TEMP:  72;

ELBOW LAKE     FAIR      72  33  23 SE14G24   30.10F
6HR MIN TEMP:  50; 6HR MAX TEMP:  71;

WADENA         SUNNY     70  34  26 SE13G26   30.13F
DETROIT LAKES  SUNNY     70  27  19 SE15G21   30.13F
MOORHEAD       SUNNY     73  21  14 SE16G23   30.09F
FERGUS FALLS   SUNNY     72  30  21 SE18      30.10F
MORRIS MN      SUNNY     75  37  25 SE20G28   30.08F
STAPLES        SUNNY     70  30  23 SE17      30.15F
$$
  *****  WEATHER ELSEWHERE ACROSS MINNESOTA  *****

CITY           SKY/WX    TMP DP  RH WIND       PRES   REMARKS
DULUTH         SUNNY     68  27  21 E15       30.23F
6HR MIN TEMP:  45; 6HR MAX TEMP:  68;

INTRNTL FALLS  SUNNY     71  23  16 SE12G20   30.18F
6HR MIN TEMP:  36; 6HR MAX TEMP:  71;

ELY            SUNNY     68  19  15 SE13G21   30.22F
CLOQUET        SUNNY     70  27  19 E13G18    30.20F
WHEATON        SUNNY     73  34  23 E17G25    30.09F
BRAINERD       SUNNY     68  35  29 E9G21     30.18F
6HR MIN TEMP:  36; 6HR MAX TEMP:  68;

HIBBING        SUNNY     70  20  15 SE13G23   30.21F
6HR MIN TEMP:  32; 6HR MAX TEMP:  71;

ALEXANDRIA     SUNNY     71  35  26 E16G25    30.14F
6HR MIN TEMP:  48; 6HR MAX TEMP:  71;

SAINT CLOUD    SUNNY     70  43  37 E13G22    30.15F
6HR MIN TEMP:  49; 6HR MAX TEMP:  71;

MINNEAPOLIS    MOSUNNY   70  45  40 E16G25    30.17F
6HR MIN TEMP:  53; 6HR MAX TEMP:  70;

$$

  *****  WEATHER ACROSS SOUTH DAKOTA  *****

CITY           SKY/WX    TMP DP  RH WIND       PRES   REMARKS
SIOUX FALLS    CLOUDY    67  56  67 SE14      30.07S
6HR MIN TEMP:  46; 6HR MAX TEMP:  69;

BROOKINGS      PTSUNNY   70  52  52 SE20      30.08S
WATERTOWN      SUNNY     72  37  28 SE13G24   30.07F
6HR MIN TEMP:  50; 6HR MAX TEMP:  72;

HURON          MOSUNNY   74  41  30 S15G24    30.02F
6HR MIN TEMP:  45; 6HR MAX TEMP:  74;

SISSETON         N/A     74  25  16 S16G29    30.07F
ABERDEEN       SUNNY     75  33  21 SE17G25   30.05F
6HR MIN TEMP:  46; 6HR MAX TEMP:  75;

MITCHELL       CLOUDY    70  47  43 SE15      30.04F
PIERRE         PTSUNNY   72  44  36 SE18G26   29.99F
6HR MIN TEMP:  50; 6HR MAX TEMP:  72;

MOBRIDGE       SUNNY     74  36  25 S20       29.98F
RAPID CITY     CLOUDY    62  48  60 S18G25    29.96F
6HR MIN TEMP:  38; 6HR MAX TEMP:  63;

$$

  *****  SOME WEATHER IN NEARBY STATES *****

CITY           SKY/WX    TMP DP  RH WIND       PRES   REMARKS
GLASGOW MT     SUNNY     71  43  36 S13       29.78F
6HR MIN TEMP:  44; 6HR MAX TEMP:  71;

GREAT FALLS MT PTSUNNY   67  33  28 VRB3      29.77F
6HR MIN TEMP:  45; 6HR MAX TEMP:  68;

CHEYENNE WY    FOG       48  47  96 S10       29.96F VSB 3/4
6HR MIN TEMP:  43; 6HR MAX TEMP:  47;

SCOTTSBLUFF NE CLOUDY    60  49  66 SE13      29.95F
6HR MIN TEMP:  48; 6HR MAX TEMP:  61;

OMAHA NE       CLOUDY    72  61  68 S14       30.07F
6HR MIN TEMP:  60; 6HR MAX TEMP:  72;

DES MOINES IA  CLOUDY    75  61  61 S9        30.11F
6HR MIN TEMP:  62; 6HR MAX TEMP:  76; 6HR PCP: TRACE;

DAVENPORT IA   CLOUDY    64  60  87 E13       30.18F FOG
6HR MIN TEMP:  57; 6HR MAX TEMP:  64;

CHICAGO IL     FOG       50  49  96 NE10      30.23F VSB 1
6HR MIN TEMP:  50; 6HR MAX TEMP:  52; 6HR PCP:  0.02;

EAU CLAIRE WI  MOSUNNY   69  27  20 SE23G29   30.22F
6HR MIN TEMP:  49; 6HR MAX TEMP:  69;

LA CROSSE WI   CLOUDY    58  50  75 E10       30.24F
6HR MIN TEMP:  54; 6HR MAX TEMP:  58; 6HR PCP:  0.03;

$$

  *****  SOME NATIONAL WEATHER *****

CITY           SKY/WX    TMP DP  RH WIND       PRES   REMARKS
LA GUARDIA NY  PTSUNNY   80  55  42 CALM      30.19F
6HR MIN TEMP:  68; 6HR MAX TEMP:  80;

RALEIGH NC     MOSUNNY   80  58  46 SW10      30.30F
6HR MIN TEMP:  62; 6HR MAX TEMP:  80;

ATLANTA GA     MOSUNNY   79  55  43 E10       30.30F
6HR MIN TEMP:  63; 6HR MAX TEMP:  79;

NEW ORLEANS LA MOSUNNY   82  62  50 SE15G23   30.16F
6HR MIN TEMP:  70; 6HR MAX TEMP:  83;

OKLAHOMA CITY  CLOUDY    72  58  61 S18G28    30.00F
6HR MIN TEMP:  61; 6HR MAX TEMP:  72;

ALBUQUERQUE NM PTSUNNY   58  41  53 W13       29.95F
6HR MIN TEMP:  50; 6HR MAX TEMP:  60; 6HR PCP: TRACE;

SALT LAKE CITY CLOUDY    63  45  51 W15       29.85S
6HR MIN TEMP:  57; 6HR MAX TEMP:  64;

LOS ANGELES CA CLOUDY    60  50  69 W7        30.01R
6HR MIN TEMP:  58; 6HR MAX TEMP:  60;



USA.gov is the U.S. government's official web portal to all federal, state and local government web resources and services.